Погода в Верхоянске

Погода в Верхоянске : погода сейчас, прогноз погоды и архив. Всё, что Вы хотите узнать о погоде в Верхоянске!

Хотите узнать прогноз погоды в Верхоянске? Тогда Вам сюда: Погода в Верхоянске

Поиск расширенной информации на нашем сайте:

Другие новости

Новости СМИ2

Главная страница сайта

Новости сайта

03.07.2017

Напоминаем, что на нашем специализированном сайте Метеоцентр.Азия вы можете получить высокодетализированные автоматические прогнозы погоды по пунктам России, СНГ и мира в авиационном формате (включающие направление и скорость ветра, видимость, явления погоды, количество и форму облачности, нижнюю и верхнюю границу облачности).

Рекомендуем: Актуальная информация спортивный уголок трансформер на сайте.

Погода в Верхоянске - сегодня

Время (UTC), дата Ветер
(°,м/с) 
Видим.   Явления Облачность Т
(°С)
Тd
(°С)
f(%) Тe
(°С)
Pmin
(гПа)
dP
(гПа)
Po
(мм)
O2
(г/м3)
Тmin Tmax R s Состояние
почвы
09 18.07.17 060 (СВ) 20000 м    3/1 1000 м средняя 
[Cu hum|Ac trans]
+19.3 +5.1 39 +20  1001.6  -0.9  739  277    +20.6       
12 18.07.17 030 (СВ) 20000 м    9/8 1320 м средняя 
[Sc|Ac trans]
+15.8 +6.4 54 +17  1002.2  0.4  740  281           
15 18.07.17 020 (С) 20000 м  слаб. ливневой дождь  9/9 1140 м кучево-дожд. 
[Cb cap]
+13.3 +4.4 55 +13  1002.8  0.5  740  284           
18 18.07.17 050 (СВ) 20000 м  в посл. час ливневой дождь  9/8 1110 м кучево-дожд., средняя 
[Cb cap|Ac cuf]
+8.6 +6 84 +10  1003.2  0.1  740  288           
21 18.07.17 020 (С) 20000 м  в посл. час ливневой дождь  8/8 1260 м 
[Sc]
+8.6 +7.1 90 +9  1004.1  0.8  741  288  +8.3    0.3     
00 19.07.17 060 (СВ) 20000 м  {ливн. осадки}  5/1 1000 м средняя 
[Cu med, cong|Ac trans]
+13.8 +7.8 67 +15  1003.3  -0.4  740  283           
03 19.07.17 110 (В) 20000 м  в посл. час ливневой дождь  6/6 1000 м кучево-дожд. 
[Cb cap]
+13.7 +6.8 63 +15  1002.8  -0.5  740  283           
06 19.07.17 070 (В) 20000 м  {ливн. осадки}  4/3 1500 м верхняя 
[Cu med, cong|Ci fib]
+16.7 +3.1 40 +18  1002.3  -0.4  740  280           
09 19.07.17 080 (В) 20000 м    3/1 1500 м средняя 
[Sc|Ac trans]
+17.2 +3.8 41 +18  1002.2  740  280    +17.5  0.3     
12 19.07.17 020 (С) 5{11}  20000 м    8/3 1000 м кучево-дожд., средняя, верхняя 
[Cb cap|Ac trans|Ci fib]
+11.9 +3.1 55 +11  1004.6  741  286           
15 19.07.17 050 (СВ) 4{10}  20000 м    8/4 1000 м кучево-дожд., средняя 
[Cb cap|Ac trans]
+6.6 +0.5 65 +5  1007.7  2.8  743  292           
18 19.07.17 030 (СВ) 20000 м    6/3 1000 м кучево-дожд., средняя 
[Cb cap|Ac trans]
+4.8 +0.1 72 +4  1008.9  1.1  744  295           
21 19.07.17 010 (С) 20000 м    9/4 1000 м средняя 
[Sc|Ac trans]
+5.5 +0 68 +4  1010.3  1.4  745  294  +4.6        сухая 
00 20.07.17 тихо () {10}  20000 м  {ливн. осадки}  10/10 1260 м кучево-дожд. 
[Cb cap]
+3.3 +1.2 86 +3  1011.6  1.1  746  297  +3.3         
03 20.07.17 010 (С) 20000 м    10/8 1300 м кучево-дожд., средняя 
[Cb cap|Ac und]
+7.4 +0 59 +7  1011.7  0.4  746  293           
06 20.07.17 360 (С) 20000 м    10/3 1000 м средняя 
[Sc|Ac und]
+8.7 -0.5 52 +7  1012.4  0.7  747  292           
09 20.07.17 020 (С) 4{10}  20000 м    9/4 1000 м кучево-дожд., средняя 
[Cb cap|Ac trans]
+9 -0.4 52 +8  1013  0.7  747  292    +9.1     
12 20.07.17 020 (С) 20000 м    8/0 средняя, верхняя 
[Ac trans|Ci fib]
+7.4 -1 55 +6  1014.3  1.1  748  294           
15 20.07.17 010 (С) 20000 м    6/0 средняя, верхняя 
[Ac trans|Ci fib]
+4.9 +0.5 73 +4  1015.1  0.6  749  296           
18 20.07.17 360 (С) 20000 м    6/6 600 м 
[Sc]
+3.1 +0.5 83 +3  1016.6  1.5  750  299           
21 20.07.17 360 (С) 20000 м    10/6 600 м верхняя 
[Sc|Ci fib]
+4.5 +0 73 +3  1016.6  750  297  +3        сухая 
00 21.07.17 010 (С) 20000 м    9/5 600 м средняя 
[Sc|Ac trans]
+6.8 +1 66 +5  1016  -0.5  749  294           
03 21.07.17 010 (С) 20000 м    9/5 1000 м средняя 
[Sc|Ac trans]
+8.8 +1.8 61 +9  1015.2  -0.7  749  292           
06 21.07.17 070 (В) 20000 м    6/1 1000 м средняя, верхняя 
[Sc|Ac trans|Ci fib]
+12.7 +3.3 53 +13  1014.1  -0.9  748  288           
09 21.07.17 330 (СЗ) 20000 м    4/0 средняя, верхняя 
[Ac trans|Ci fib]
+14.1 +3.2 48 +14  1013.4  -0.4  748  286    +12.6       
Время (UTC), дата Ветер
(°,м/с) 
Видим.   Явления Облачность Т
(°С)
Тd
(°С)
f(%) Тe
(°С)
Pmin
(гПа)
dP
(гПа)
Po
(мм)
O2
(г/м3)
Тmin Tmax R s Состояние
почвы

Для получения пояснительной информации подведите курсор к названию столбца.

ПОГОДА в Верхоянске - архив

Всё, что Вы хотите узнать о погоде в Верхоянске - удобно и подробно!

Выберите нужную дату (начиная с 1 января 2015* года) и нажмите кнопку "Найти".
Будут отображены архивные сводки погоды по пункту Верхоянск, начиная с указанной даты.


Отображать данные в формате CSV (для использования в таблицах Excel)


Внимание! Наш архив погоды предназначен исключительно для личного некоммерческого использования в познавательных целях. Если Вам необходимы официальные справки о состоянии погоды (для производственных, юридических, коммерческих и т.п. целей), обращайтесь в органы Росгидромета.

*Примечание: данная дата относится к архиву по метеостанциям СССР (Россия, СНГ, Балтия).
Архив по метеостанциям Зарубежной Европы и Азии (кроме Китая) хранится 10 дней, по другим регионам земного шара (Китай, Африка, Америка, Австралия, Океания) - 1 день.

Верхоянск - район местоположения метеостанции


Название, широта, долгота, высота метеостанции:
Верхоянск 67.6°ш. 133.4°д. 137 м над ур. моря [Российская Федерация]

Дополнительная информация

В oтличие oт бoльшинства пoгoдных сайтoв мы публикуем пoдрoбную метеoинфoрмацию в детальнoм прoфессиoнальнoм фoрмате.

Характеристики температуры и влажнoсти вoздуха измеряются на высoте 2 м в тени вдали oт зданий и деревьев.
Скoрoсть ветра измеряется на высoте 10 м (на урoвне рoста челoвека скoрoсть ветра ниже в 1.5-2 раза). Если метеoстанция нахoдится в гoрoде или в лесу, тo скoрoсть ветра занижена на 2-4 м/с пo сравнению с oткрытым местoм. Скoрoсть ветра над акватoриями крупных рек и oзёр, а также на вершинах хoлмoв на 2-5 м/с выше, чем в oбычных услoвиях.
Атмoсфернoе давление в разных тoчках местнoсти мoжет значительнo oтличаться oт давления на метеoстанции, в зависимoсти oт услoвий рельефа (при пoдъёме на 10 м давление пoнижается примернo на 1 мм рт.ст.).